GFSMW_2pvu_pres_078.txt.gz
Presure
143 154 172 172 189 181 177 167 154 164 168 162 151 154 146 152 157 155 148 149 150 145 150 145 145 146 144 151 155 152 158 149 147 148 147 161 160 148 160 169 158 161 171
175 139 124 163 182 190 184 179 159 124 166 169 151 155 154 146 152 150 151 151 144 148 152 151 150 151 153 158 154 148 152 163 158 156 148 149 156 165 169 161 166 175 178
171 182 180 177 178 177 188 128 181 144 169 171 165 162 157 159 153 149 147 144 143 149 145 150 147 143 149 160 152 148 160 164 163 155 158 159 166 159 166 167 178 181 181
162 181 182 172 171 175 155 178 163 122 183 163 176 163 160 160 162 162 158 154 159 159 160 155 148 159 160 161 166 161 162 158 159 169 168 172 166 171 172 175 182 180 181
153 163 189 180 176 178 178 147 186 164 166 184 178 173 171 168 169 162 161 167 167 168 147 165 159 155 159 158 160 161 169 163 165 172 171 173 181 181 182 171 174 178 186
192 192 163 192 186 180 181 176 171 186 176 171 185 181 156 150 180 180 176 177 173 169 167 167 166 163 163 162 162 166 171 176 177 175 176 179 180 181 166 180 180 159 168
165 171 201 197 194 190 188 183 190 172 175 181 164 138 168 173 161 164 163 158 156 153 150 173 177 174 172 171 173 176 181 183 185 155 183 173 172 159 182 177 174 186 186
201 179 163 163 194 198 194 191 179 197 181 171 168 156 175 170 171 161 173 169 158 160 156 160 166 166 170 167 164 165 136 173 174 174 173 177 178 185 177 179 169 192 173
199 197 189 181 209 203 201 190 142 189 189 191 182 174 170 157 160 160 172 171 162 163 172 170 166 156 156 163 163 164 175 149 173 168 176 173 176 184 180 172 193 178 192
216 208 202 198 183 197 201 194 193 154 194 191 166 176 176 174 171 161 155 154 160 168 163 136 132 156 135 164 167 167 163 169 177 179 170 183 186 160 169 199 186 208 227
239 227 214 204 200 193 186 213 195 200 199 203 194 182 172 181 185 178 177 169 163 162 163 167 165 163 171 153 160 172 175 169 174 186 178 160 193 199 204 194 240 270 250
254 242 243 249 224 201 202 197 195 207 198 197 197 131 192 195 164 178 190 161 173 180 184 138 152 188 164 139 191 173 152 182 185 197 155 201 205 179 208 225 231 260 253
269 262 257 245 240 260 201 188 207 211 192 126 143 195 185 159 188 180 160 173 152 153 161 171 153 173 169 176 181 188 182 197 174 199 194 197 200 198 247 231 234 251 259
289 274 269 249 267 267 267 240 270 167 215 204 205 203 168 162 188 179 179 164 163 179 177 191 209 183 194 191 186 202 188 226 226 214 236 238 241 233 253 232 251 258 255
290 268 264 260 267 263 258 265 267 270 168 276 279 230 200 190 201 194 160 193 175 176 162 159 201 183 178 216 173 254 257 242 215 243 259 237 260 229 263 245 263 260 255
310 293 267 314 293 273 112 276 283 105 279 270 276 273 128 272 203 180 193 192 190 241 173 202 185 185 197 199 197 200 232 250 237 232 219 265 231 251 264 257 244 254 250
295 273 301 265 254 249 168 272 263 264 260 260 117 272 269 182 266 261 180 230 192 197 215 244 243 239 254 242 245 243 246 250 234 255 230 266 267 263 246 255 249 251 278
296 305 331 274 258 250 303 318 250 242 247 302 277 290 263 181 260 250 244 239 241 256 245 251 241 236 191 256 239 255 281 257 231 277 274 258 249 261 249 254 247 275 266
307 304 308 318 303 286 273 259 247 242 252 284 281 281 269 260 248 287 245 282 284 280 274 153 125 253 241 281 278 220 269 268 247 254 252 251 254 240 247 242 268 262 262
288 301 300 302 304 297 286 313 278 295 283 285 289 293 290 336 338 348 314 322 285 281 321 304 299 293 288 291 274 258 277 264 255 250 259 243 228 237 243 258 257 252 251
283 281 291 279 284 287 289 264 259 280 273 259 262 257 256 275 282 262 251 254 254 254 300 268 287 277 280 259 259 260 253 250 252 245 248 238 240 239 246 255 250 247 240
272 277 272 274 283 274 271 276 276 278 275 280 289 303 300 315 269 250 266 296 274 266 261 286 273 272 264 252 256 240 253 241 234 229 244 248 240 237 240 250 246 244 238
263 264 268 263 263 267 266 267 264 265 277 269 269 273 270 274 294 290 292 270 274 270 275 263 252 251 264 242 248 250 232 243 233 252 239 228 236 239 240 244 243 239 240
259 260 278 259 261 262 266 268 273 265 263 259 255 253 252 272 267 289 288 273 275 269 261 254 246 245 240 256 246 237 249 265 252 240 231 230 229 235 249 236 241 236 234
277 275 276 267 273 275 260 257 254 257 253 254 255 263 254 257 269 259 259 272 284 284 280 268 256 252 253 256 254 249 256 236 238 230 231 230 233 240 248 228 237 233 233
289 287 274 269 264 262 266 275 275 276 285 295 277 252 261 261 266 275 266 252 259 262 253 252 254 252 249 249 262 257 242 238 230 226 227 230 239 249 242 229 236 229 228

GFSMW_2pvu_pres_081.txt.gz
Presure
183 162 182 170 187 170 187 183 133 134 168 171 172 166 168 162 165 133 145 152 151 149 144 148 145 149 144 149 148 148 150 154 158 154 157 155 168 159 149 163 175 169 179
179 182 173 179 196 165 170 188 167 147 178 130 176 172 164 162 163 168 166 150 142 149 157 150 155 153 147 154 145 142 145 145 158 148 168 158 160 158 165 172 170 181 176
182 181 173 184 171 178 162 170 170 162 171 178 150 177 175 170 168 160 161 163 155 154 154 148 151 148 146 151 150 147 155 152 162 165 161 149 165 170 172 174 179 177 159
151 157 129 124 168 174 174 160 174 143 167 167 172 178 180 129 177 176 173 169 169 156 160 155 159 162 161 161 163 167 170 159 163 164 173 172 177 174 164 180 188 168 176
197 145 190 192 193 175 175 180 174 162 139 161 158 164 136 179 152 177 177 175 166 169 172 168 162 162 163 166 165 163 175 173 177 169 167 163 184 178 171 167 150 173 156
121 205 177 130 187 176 157 179 168 179 172 177 177 171 171 160 156 174 178 171 162 181 173 169 171 155 164 145 176 166 170 141 144 151 166 162 155 169 167 173 176 170 158
182 176 164 129 152 155 175 188 179 182 177 168 170 167 167 170 175 172 171 179 171 175 179 179 177 171 125 159 160 164 161 158 154 154 165 143 166 178 182 166 169 170 186
188 183 175 178 173 160 157 109 145 189 182 196 181 181 181 170 169 170 166 134 167 173 136 143 144 167 170 170 174 142 166 168 162 174 181 164 172 171 176 160 190 185 191
200 194 187 182 178 174 172 173 192 180 155 154 189 187 180 176 168 174 185 186 171 133 154 156 185 143 144 184 151 174 173 154 156 159 146 168 150 170 165 180 168 169 173
217 206 193 189 186 187 183 174 167 166 172 173 192 191 190 178 190 189 165 175 178 182 174 175 171 155 154 169 162 152 165 176 128 156 179 162 185 176 168 180 155 197 205
237 227 208 201 130 189 187 190 191 206 183 162 185 162 175 193 170 126 141 182 179 183 154 170 164 182 173 173 159 150 136 164 180 181 176 160 162 167 178 163 188 150 221
253 243 230 220 206 203 198 193 192 191 189 183 184 186 181 206 206 199 195 191 189 189 190 182 199 172 163 167 153 169 182 183 175 171 162 168 163 208 172 217 135 205 215
268 263 255 236 225 216 210 206 202 197 194 195 195 194 191 185 173 184 189 202 199 147 154 175 131 159 136 174 174 155 152 175 196 194 192 172 184 192 187 225 208 160 208
269 271 266 261 254 240 229 222 215 208 205 206 207 204 203 201 196 192 193 204 168 191 193 200 195 150 187 154 142 167 151 184 168 188 181 197 200 199 232 217 200 219 236
294 299 265 284 271 268 260 250 240 216 218 214 213 182 182 209 190 202 195 192 198 198 202 184 200 196 157 153 185 179 188 196 192 188 187 205 236 236 241 193 234 234 244
289 278 296 269 287 270 273 265 261 268 254 96 97 251 245 228 129 190 215 200 292 252 204 208 207 209 208 203 148 203 202 163 217 205 184 230 237 253 269 232 259 257 224
290 288 285 288 299 274 323 285 282 281 276 271 270 228 252 268 287 258 239 273 277 151 159 197 265 241 227 213 251 248 204 210 205 220 209 240 255 236 234 232 265 269 249
270 266 292 286 291 297 285 270 286 258 286 284 278 265 265 286 280 275 273 277 269 253 254 260 263 273 256 271 265 275 268 263 243 263 247 257 235 272 267 249 255 251 253
294 292 274 264 270 295 279 278 298 288 284 306 308 302 259 251 319 268 262 255 256 253 257 301 284 232 259 227 232 237 253 249 258 252 279 269 277 233 244 244 248 239 246
299 280 283 287 288 300 313 314 312 293 288 289 291 285 279 275 270 259 255 245 235 313 278 274 278 288 318 305 302 246 259 292 298 285 271 253 251 250 249 246 245 238 241
300 290 291 290 285 302 301 304 299 303 300 302 303 306 300 298 313 282 298 292 267 266 311 321 270 286 299 285 277 263 266 277 241 252 250 255 252 244 249 245 229 241 239
283 282 284 285 286 278 283 285 283 280 281 269 288 290 287 285 270 295 298 293 281 283 251 250 292 303 264 243 243 242 257 256 267 262 251 249 240 240 244 237 234 238 232
278 282 276 273 270 280 275 269 273 267 264 266 269 277 266 275 280 275 278 301 299 280 293 282 276 292 279 266 265 271 263 252 250 238 247 239 237 239 227 253 245 234 236
268 264 270 262 258 261 265 262 257 263 272 266 273 266 271 264 263 263 264 276 268 289 291 284 272 272 253 258 267 242 248 236 236 235 235 240 236 259 243 236 232 228 231
284 282 274 267 263 264 260 266 265 259 257 254 257 261 266 259 251 250 252 252 259 271 276 285 268 266 267 273 258 252 254 247 242 246 239 250 246 247 235 229 228 230 229
249 261 282 286 282 276 271 274 274 266 271 268 268 267 265 262 262 259 256 262 253 268 265 261 262 274 279 275 273 265 268 267 263 252 243 255 246 237 227 233 235 237 236

GFSMW_2pvu_pres_084.txt.gz
Presure
187 147 177 160 168 198 203 173 178 182 160 169 183 167 170 170 163 170 165 165 168 144 153 145 147 130 143 157 143 141 152 157 146 142 145 151 162 160 167 159 180 175 174
139 185 138 154 179 182 196 214 180 182 174 171 153 161 167 160 161 162 164 167 176 172 172 165 160 159 161 164 161 161 158 149 155 161 162 161 162 169 171 174 171 173 176
137 192 186 145 186 127 175 178 182 183 210 186 171 172 193 177 148 131 149 169 166 142 141 172 171 164 155 158 160 161 161 162 156 161 161 165 163 162 172 172 154 161 136
149 155 196 190 183 188 162 178 161 166 182 179 174 178 174 175 179 175 159 160 175 172 131 172 168 172 172 171 172 175 163 165 165 169 172 158 163 154 159 166 130 142 167
228 169 157 191 191 163 141 187 170 170 172 178 176 147 166 163 167 169 162 156 168 159 167 170 172 176 188 187 168 175 179 180 181 131 154 177 169 169 170 174 141 142 154
178 218 126 173 159 164 145 146 179 186 169 123 169 171 181 173 140 144 166 165 169 166 154 163 120 147 179 119 144 154 136 172 179 143 144 165 168 176 178 175 165 163 166
188 173 170 148 134 199 191 174 149 163 179 178 176 163 176 174 194 181 171 172 168 171 174 174 167 148 176 175 169 157 164 152 149 143 171 184 172 159 153 156 151 166 165
196 191 174 160 167 197 198 195 114 147 192 179 170 176 176 171 169 171 168 170 171 169 168 165 162 164 165 172 146 174 173 185 183 153 139 166 147 151 155 126 168 176 152
217 195 189 180 173 168 168 196 194 183 151 192 189 187 153 154 181 180 180 180 178 180 179 175 175 177 172 171 172 174 179 172 172 176 178 189 164 188 173 173 127 170 191
234 200 201 213 221 195 176 172 170 171 170 152 159 162 185 171 158 170 152 154 150 167 179 180 180 182 176 171 180 141 150 178 177 136 146 176 166 196 149 144 142 151 167
213 212 209 197 200 221 189 184 181 178 176 177 173 180 171 162 166 195 166 194 194 193 192 190 177 181 187 175 140 182 135 157 162 190 143 170 149 165 168 165 180 186 185
237 222 219 214 203 204 204 196 193 187 183 184 184 181 181 180 174 172 170 169 169 166 194 165 170 153 194 157 185 94 188 190 110 196 179 150 140 182 161 185 141 198 166
291 264 249 232 221 219 214 211 206 203 196 195 194 191 190 189 188 190 190 186 211 218 182 180 172 171 177 171 177 183 181 196 178 177 183 184 135 177 192 152 202 197 206
312 277 281 288 286 263 238 227 223 217 213 208 205 204 201 199 195 193 193 133 165 194 196 182 170 195 193 189 186 191 183 181 165 190 183 139 179 201 144 205 204 180 214
281 306 308 301 274 289 278 270 256 239 233 227 223 217 230 206 201 201 200 198 196 198 200 185 205 205 206 204 181 203 204 203 198 187 146 209 205 179 214 218 234 224 223
291 279 281 271 297 305 277 278 273 265 256 244 240 234 230 227 228 216 213 209 206 203 204 204 205 206 206 204 206 212 213 215 215 207 198 260 274 226 262 227 218 278 228
261 292 273 273 287 298 295 303 288 278 274 270 268 263 241 207 241 238 233 231 229 224 221 218 221 222 228 227 229 228 244 268 238 244 255 258 249 251 264 274 265 273 251
281 293 285 274 260 264 292 291 289 302 296 281 274 273 281 271 264 264 258 258 254 253 264 271 249 247 258 240 248 276 230 262 242 189 292 261 260 239 238 223 250 256 278
297 296 281 282 285 277 275 260 260 297 299 292 305 305 303 284 332 307 283 275 280 287 276 274 274 266 263 319 278 265 257 265 295 250 272 259 283 237 264 291 246 260 258
294 288 290 296 285 279 283 282 280 276 274 280 269 294 295 298 279 256 304 317 317 315 317 304 263 253 247 251 305 330 254 317 305 249 304 263 285 286 272 272 264 252 244
309 286 291 284 291 288 299 296 277 283 294 289 301 301 300 299 305 328 342 343 326 326 362 320 326 313 330 277 285 264 242 285 299 252 256 273 263 268 256 260 252 241 243
287 288 292 300 304 311 323 273 284 295 289 293 272 294 283 278 279 292 298 296 296 314 321 316 307 307 309 318 278 272 271 252 292 287 278 255 257 270 258 248 246 243 234
289 285 295 288 286 284 285 287 279 278 278 282 275 277 280 278 276 278 275 271 269 267 298 300 297 293 289 296 294 299 294 263 269 239 251 268 256 255 247 241 239 238 229
283 279 273 271 277 286 280 280 278 274 277 272 273 262 262 260 262 263 267 265 267 269 269 274 273 289 289 273 271 273 277 277 264 260 255 249 249 254 237 231 231 227 232
261 278 284 279 272 269 270 270 270 261 271 265 260 261 260 263 264 261 265 266 260 260 260 261 260 271 282 281 283 269 265 263 255 251 244 254 253 238 241 243 238 232 252
249 247 246 246 256 276 275 274 269 265 263 263 257 260 261 259 259 255 258 256 259 261 252 253 251 249 251 264 268 281 272 263 259 263 258 265 242 248 263 261 256 248 250

GFSMW_2pvu_pres_087.txt.gz
Presure
219 199 192 185 177 179 180 153 160 182 169 177 171 176 188 159 189 170 175 167 172 173 165 172 164 161 172 166 166 155 169 175 162 155 156 156 159 158 162 167 163 169 173
213 206 181 192 189 206 177 174 175 166 160 177 178 195 169 183 178 159 182 182 172 171 168 169 171 168 162 163 163 169 163 167 173 169 168 168 173 177 130 172 181 127 179
192 204 181 172 201 151 118 180 171 164 180 178 210 192 186 178 171 198 180 161 176 185 184 126 167 153 177 159 166 146 172 171 176 130 175 128 190 185 164 183 151 179 156
188 222 176 171 126 124 125 142 175 178 187 201 157 180 184 182 181 163 174 174 174 179 175 150 127 174 171 178 172 176 174 170 178 138 150 184 133 143 158 161 157 146 166
169 132 219 168 159 134 194 134 187 179 174 145 130 193 213 181 186 180 170 172 173 178 177 176 166 168 170 178 163 173 143 179 159 173 141 166 166 161 145 169 152 179 148
204 204 194 215 184 193 215 178 161 182 180 157 169 170 158 149 161 171 180 162 171 158 171 133 135 161 161 160 177 171 165 176 167 168 160 172 172 173 139 178 172 177 115
205 206 171 208 179 187 196 150 146 161 181 179 181 141 185 181 168 167 174 180 165 169 169 171 170 173 174 172 171 174 160 168 172 178 178 156 175 177 169 176 181 181 178
180 187 280 195 208 179 169 230 232 168 185 189 187 183 175 142 171 198 178 174 167 161 161 165 177 183 179 170 159 163 180 181 111 174 169 170 143 136 181 133 134 178 194
219 184 178 193 197 227 172 173 229 176 218 170 157 184 188 175 154 90 170 175 175 179 174 154 175 173 152 183 183 179 152 177 178 154 179 188 179 173 178 142 134 180 131
231 207 187 180 181 235 183 178 166 214 222 225 186 194 194 189 187 188 202 172 145 198 191 198 201 206 189 164 146 187 182 183 186 192 178 189 162 158 182 169 179 148 170
246 223 202 196 189 182 261 224 183 174 170 167 164 168 172 188 192 192 190 192 202 203 199 172 165 141 189 164 178 178 172 191 173 160 158 182 168 173 165 182 166 126 173
257 247 215 242 199 193 233 185 191 190 184 182 179 174 171 170 171 171 172 172 175 175 174 174 173 179 196 102 127 172 171 172 163 199 175 152 178 183 191 191 151 191 176
265 257 239 218 213 206 201 236 236 214 198 192 189 185 186 192 184 182 183 190 185 183 182 183 180 109 179 180 180 183 181 181 181 180 182 187 189 184 199 176 201 202 181
302 292 262 252 229 223 217 212 209 213 205 202 200 199 216 202 211 196 195 210 194 193 194 194 192 190 190 180 156 183 183 185 188 190 191 189 196 201 200 202 207 200 207
281 289 299 301 312 254 238 231 224 219 216 214 213 211 205 203 203 206 205 204 205 203 202 203 203 203 203 200 194 203 202 203 201 204 205 201 204 206 206 205 209 219 236
256 265 276 296 294 295 309 307 284 247 238 229 224 223 222 222 219 219 218 216 215 214 214 213 213 212 209 208 210 209 206 205 202 206 210 209 213 213 220 228 235 229 259
289 290 292 274 261 299 293 291 300 307 307 297 292 310 269 254 251 245 242 241 237 232 231 232 232 231 232 229 224 225 224 223 223 225 230 239 242 245 242 283 268 263 253
282 283 290 291 285 285 271 295 289 284 294 303 306 312 304 287 287 280 277 273 269 264 261 259 258 258 257 256 260 261 257 255 254 273 280 276 245 266 293 265 261 275 261
289 279 283 283 280 286 282 280 277 265 258 261 280 294 274 302 296 299 298 268 267 267 267 266 267 268 271 311 277 265 269 277 274 293 290 306 279 249 269 305 262 297 258
283 293 283 278 280 282 282 285 283 286 292 291 288 287 278 272 254 299 302 276 159 281 302 303 299 290 292 300 308 314 271 288 282 277 266 258 254 258 232 241 242 275 276
316 332 324 301 291 281 276 293 273 301 287 275 279 287 283 282 285 284 287 270 288 250 294 246 304 307 298 325 330 339 322 280 321 299 290 284 287 268 255 272 264 267 262
297 293 298 305 314 316 315 307 287 287 287 286 290 291 278 282 286 275 283 268 273 275 282 278 281 281 303 313 276 312 319 292 328 316 266 286 283 262 251 249 277 262 259
289 292 295 295 289 287 290 300 301 301 305 271 266 263 263 263 265 285 287 289 276 281 277 275 275 268 267 276 282 304 291 293 297 303 293 285 289 279 275 255 263 266 265
285 284 281 284 287 286 279 282 276 287 291 287 289 283 281 276 283 276 268 266 271 263 263 266 265 268 263 271 272 269 281 279 289 275 267 264 271 264 259 265 260 249 243
256 255 261 279 287 282 292 289 282 284 287 274 275 277 277 278 272 274 268 263 264 260 261 265 265 265 260 262 260 255 256 269 277 284 273 266 271 262 257 256 246 242 241
261 256 253 252 252 259 273 280 279 276 273 271 276 280 268 264 274 270 260 265 266 262 257 259 260 258 265 251 267 251 251 255 246 254 279 273 266 255 254 256 257 265 258

GFSMW_2pvu_pres_090.txt.gz
Presure
180 218 193 188 191 175 177 139 184 170 157 182 158 165 149 143 141 168 170 171 171 171 148 168 173 173 172 175 176 174 178 168 172 173 172 180 179 177 162 117 165 165 135
175 181 175 196 192 188 167 163 175 168 174 174 160 169 177 168 159 152 155 160 163 159 174 142 169 185 199 126 160 127 128 161 178 169 167 177 130 158 138 150 172 161 178
167 179 173 194 203 205 192 207 204 215 205 174 171 173 164 148 159 148 153 172 161 166 177 193 189 190 191 178 192 194 179 176 180 171 170 160 155 165 168 179 167 165 152
210 209 173 180 218 202 198 185 191 179 181 150 178 177 173 166 163 158 154 152 164 189 187 176 196 189 202 178 174 173 169 170 166 169 163 146 172 163 175 159 160 179 172
199 182 202 207 180 196 188 202 186 170 197 185 183 174 176 171 165 161 158 170 153 192 198 197 202 191 187 186 158 156 189 193 202 132 177 131 165 149 150 161 185 119 163
200 217 201 196 212 197 200 198 183 179 165 163 119 122 124 181 184 174 171 169 180 204 189 171 184 174 200 199 189 199 191 166 165 160 169 177 181 158 180 168 175 179 141
217 204 194 183 159 175 139 181 214 202 192 173 173 131 133 156 168 183 181 175 173 173 170 172 159 152 140 126 156 167 166 177 139 177 170 174 171 174 177 153 163 168 179
194 254 208 181 178 195 212 166 172 196 202 197 174 187 190 135 133 149 95 191 192 155 165 142 135 182 186 183 186 182 156 190 176 96 172 161 180 144 177 159 159 171 178
277 272 211 225 216 189 189 165 176 192 216 219 226 177 181 188 194 154 189 184 181 180 176 172 175 156 146 142 146 142 170 184 157 155 152 147 173 180 160 171 186 177 182
272 284 295 198 212 223 216 198 171 162 188 192 196 179 165 167 186 200 197 194 194 181 165 190 187 184 184 181 180 190 207 183 209 197 154 187 181 173 167 188 179 191 198
258 261 263 244 198 197 214 210 178 197 188 178 173 186 176 164 178 198 219 214 210 199 203 199 189 189 187 177 191 191 190 190 192 187 165 162 179 177 143 178 177 190 173
259 261 262 269 271 198 202 261 247 183 195 202 219 222 195 199 164 162 174 229 219 221 234 179 226 185 189 171 190 176 173 179 173 180 168 172 173 195 197 169 177 180 182
273 280 255 272 278 270 201 197 211 224 193 192 181 181 191 182 213 175 172 175 175 227 228 183 172 180 209 173 184 193 171 176 168 186 184 180 179 177 181 159 188 190 197
292 300 297 300 303 283 268 247 204 204 203 204 194 193 189 186 185 183 238 189 181 182 182 189 193 183 183 182 199 219 212 187 204 205 208 198 199 211 200 203 207 207 206
260 265 285 292 297 300 295 277 255 228 246 218 204 202 201 197 193 225 238 233 211 195 195 195 193 194 198 198 208 215 217 220 203 206 206 210 212 212 211 213 217 217 219
282 286 288 288 286 287 295 309 324 275 243 238 217 214 235 228 204 204 203 238 238 236 251 206 205 203 205 220 225 213 229 213 211 218 220 223 221 222 227 228 232 231 234
267 262 265 263 264 269 276 288 305 309 312 311 248 235 227 221 218 216 215 214 213 213 227 227 217 218 220 219 222 222 224 228 232 237 243 248 249 247 251 251 252 260 253
268 273 278 274 280 287 294 283 282 262 268 304 301 304 316 288 254 240 237 234 233 230 230 229 230 232 238 249 277 289 268 287 273 279 265 266 273 269 271 283 270 271 296
300 282 282 281 282 284 285 269 280 260 295 295 295 278 271 298 299 302 305 308 313 308 303 298 290 281 319 317 295 286 286 284 310 267 275 294 301 322 320 321 307 267 269
279 283 291 290 276 279 277 279 278 280 295 294 296 291 289 283 259 254 245 294 294 290 297 297 300 271 305 313 328 322 298 293 291 315 264 270 315 362 271 294 299 311 282
272 274 280 277 273 276 277 280 271 279 286 294 291 289 257 272 292 289 287 287 291 260 258 240 252 285 282 257 263 241 240 243 274 275 320 306 296 314 308 307 295 276 273
306 309 305 309 306 292 278 314 295 286 285 278 278 281 277 279 295 274 287 281 291 279 276 299 286 282 282 283 281 279 281 284 304 315 309 307 315 320 305 296 286 289 264
283 282 291 291 293 297 300 298 307 314 316 318 311 310 320 318 305 282 282 293 285 279 272 259 262 283 247 259 272 271 283 269 273 273 283 300 288 292 285 280 274 271 282
269 276 283 278 277 280 283 290 294 289 286 285 290 290 292 295 305 304 302 269 267 269 292 281 287 277 266 273 264 264 264 259 262 265 263 260 256 282 285 276 275 256 255
275 269 266 269 274 277 278 275 283 278 283 284 274 279 287 285 285 284 288 280 279 274 274 273 271 265 267 262 257 255 267 267 261 259 259 259 259 254 265 264 273 273 265
278 273 266 263 261 258 263 273 270 276 282 277 287 279 283 277 285 271 276 275 269 276 273 274 267 265 262 262 261 259 254 258 252 256 254 256 248 250 248 250 261 267 263

GFSMW_2pvu_pres_093.txt.gz
Presure
163 186 217 170 211 181 188 159 151 165 167 159 164 163 174 182 164 155 166 177 151 162 168 164 154 165 170 174 169 163 170 180 147 127 182 197 175 169 164 179 174 148 168
177 164 188 146 140 222 164 179 176 169 190 149 166 153 159 171 175 178 168 165 155 159 156 136 161 177 169 177 186 180 171 183 166 200 195 184 155 164 166 169 166 194 149
173 172 173 170 157 144 155 194 175 187 173 154 169 177 168 178 161 171 177 166 154 155 161 156 165 169 182 182 159 156 171 156 188 178 194 205 193 189 182 179 168 164 163
182 174 173 180 188 171 179 174 173 212 190 177 174 173 171 167 191 185 176 178 175 185 159 183 180 154 163 184 178 157 193 161 191 163 154 186 152 174 175 159 157 190 170
180 177 199 176 173 172 166 134 176 158 176 177 183 183 180 176 179 164 157 211 165 169 159 164 168 186 183 167 188 173 163 179 170 210 162 163 177 164 154 200 169 179 177
218 214 180 170 169 173 169 171 173 164 176 180 172 181 185 163 167 204 193 170 197 175 125 179 174 180 158 186 185 173 145 179 159 168 176 169 133 176 170 160 184 179 168
197 191 218 201 176 189 191 174 176 178 195 189 188 185 192 188 194 188 175 180 138 186 193 128 169 157 167 183 214 214 168 182 142 159 172 123 139 151 161 153 136 138 187
216 202 196 232 212 204 180 203 167 159 181 175 173 177 161 194 191 183 190 191 184 147 137 133 128 182 190 145 198 186 180 193 195 175 169 182 178 178 182 177 135 180 190
255 246 201 199 195 189 190 201 182 202 194 190 187 172 174 163 172 188 170 173 171 170 162 178 185 186 142 148 196 192 193 193 194 132 191 186 168 172 173 170 162 166 182
279 271 254 218 193 209 185 187 194 206 197 194 180 200 134 145 158 171 187 187 183 189 189 191 190 189 194 193 193 198 195 175 180 187 194 190 189 191 163 156 186 170 187
301 299 288 285 231 219 193 190 191 157 191 190 208 201 200 165 162 158 164 188 196 168 200 215 179 179 175 174 168 197 204 209 212 161 205 211 213 168 158 174 181 169 172
272 273 284 285 262 273 263 211 197 191 200 222 232 224 214 186 189 208 184 185 186 188 191 191 209 203 209 195 180 174 209 175 207 216 213 181 226 175 172 168 176 214 208
261 260 261 267 239 242 276 256 211 231 175 190 182 244 210 175 191 193 191 177 173 194 173 193 197 187 188 154 167 172 171 171 182 166 207 219 225 185 220 208 235 225 224
270 274 280 288 263 276 270 280 276 266 270 244 220 194 190 220 248 249 210 176 178 179 148 151 126 156 199 223 191 182 211 182 183 178 177 181 182 164 184 209 194 218 227
287 274 270 271 266 270 273 273 271 272 276 252 262 270 221 202 198 192 193 212 212 183 183 182 184 184 231 213 197 185 211 235 241 187 189 190 194 201 201 238 236 242 221
275 269 267 270 279 306 315 306 297 308 277 261 313 322 291 278 265 239 207 200 197 195 216 216 211 197 204 233 211 193 193 195 175 136 236 234 238 235 216 217 220 231 231
293 286 280 271 276 289 282 280 275 274 273 256 252 253 310 314 283 265 244 224 219 209 203 204 210 205 202 209 220 207 203 209 211 215 214 217 221 228 233 237 254 292 282
286 287 276 275 278 278 267 263 264 265 269 274 281 251 261 285 309 316 321 271 254 244 236 238 232 227 216 226 224 221 218 223 228 232 235 240 262 280 289 296 302 305 296
274 272 272 272 274 271 270 266 264 269 279 292 278 281 305 297 262 288 289 305 310 311 274 258 244 240 237 236 236 239 244 250 282 300 283 280 280 294 307 316 315 256 308
272 269 269 268 267 267 271 274 297 295 298 293 290 289 290 286 255 297 297 290 246 241 247 298 296 300 299 295 298 291 289 307 278 283 303 270 271 241 255 271 243 348 346
283 284 284 282 286 279 280 273 279 278 283 280 285 281 288 294 286 294 292 285 291 297 299 297 301 301 295 252 258 297 291 249 273 260 296 283 292 325 323 327 330 316 307
300 294 282 273 266 265 272 277 275 281 283 285 277 276 271 283 282 274 285 276 283 274 270 281 285 288 287 297 291 295 287 286 280 281 292 290 293 284 266 294 297 304 303
295 288 289 313 314 290 279 274 267 266 278 272 276 285 281 277 273 283 285 284 283 285 286 287 304 277 285 291 279 286 268 278 280 274 268 272 273 268 267 268 267 259 294
326 297 284 280 279 288 299 298 294 301 304 305 306 305 303 309 307 312 317 319 321 325 324 307 286 290 275 264 269 287 283 276 268 270 263 270 259 268 266 261 259 263 255
347 320 298 286 276 274 272 278 275 279 285 284 281 288 293 287 284 281 284 283 281 306 307 304 297 286 284 275 278 274 269 266 263 265 260 259 265 257 260 251 245 253 249
336 344 311 294 284 277 273 268 268 275 272 274 277 273 281 270 279 279 275 281 278 276 269 271 279 276 275 266 271 269 269 256 257 260 262 267 261 261 271 272 265 255 254

GFSMW_2pvu_pres_096.txt.gz
Presure
180 166 152 202 173 163 170 127 166 170 174 144 167 175 176 169 161 156 123 105 115 183 179 177 168 160 217 154 161 167 142 156 170 178 177 166 159 181 176 200 153 151 167
179 168 176 152 199 160 159 155 180 163 128 150 168 161 179 171 168 153 181 191 160 146 152 153 175 157 167 195 179 179 177 182 183 161 149 184 181 159 189 177 157 167 186
156 175 178 161 169 199 165 186 184 170 171 169 163 167 152 171 168 188 146 177 177 169 178 172 165 191 181 174 192 180 193 176 196 167 178 168 166 192 157 142 175 163 161
220 203 198 166 191 171 169 173 165 180 174 146 171 158 165 149 145 179 173 193 173 166 190 175 190 168 166 171 176 188 157 161 178 180 171 206 202 144 186 176 161 178 192
199 187 168 212 173 171 151 176 162 186 221 131 162 178 169 170 150 176 166 166 190 174 176 162 193 192 180 189 177 126 172 135 201 219 168 178 185 175 185 155 175 174 132
197 185 193 179 178 193 174 184 175 173 146 144 144 159 176 164 156 183 178 167 177 181 179 179 181 168 202 178 138 178 128 144 134 136 198 198 189 198 184 153 183 188 187
210 192 207 193 197 175 182 186 176 169 162 155 168 178 160 188 186 171 159 155 171 187 186 175 174 178 174 180 176 156 138 164 136 171 143 151 153 152 169 183 182 192 186
224 177 210 189 203 189 179 165 167 165 169 178 148 168 174 166 180 160 165 176 173 194 175 176 164 181 190 183 187 127 198 200 152 160 175 154 192 185 192 180 169 171 197
213 224 223 202 194 200 155 153 168 171 184 152 177 173 162 174 155 158 163 165 197 176 172 176 155 169 180 184 200 201 211 212 196 187 185 160 162 170 175 208 188 175 180
270 225 214 192 193 191 189 185 192 199 179 179 186 167 167 169 166 163 164 158 158 167 168 180 156 162 152 177 185 182 156 177 175 163 181 159 210 194 192 165 170 167 180
295 281 218 209 205 229 213 196 195 193 198 195 189 183 181 186 207 187 182 166 183 158 182 175 175 172 187 188 186 176 184 173 207 201 204 196 175 176 160 180 198 199 171
271 275 297 228 214 214 172 217 209 204 198 182 181 176 174 195 189 190 190 190 190 164 190 188 185 180 174 172 192 200 171 181 166 171 168 205 208 205 205 203 191 190 196
284 279 274 280 286 270 241 212 231 216 209 206 209 195 189 211 150 157 168 168 151 215 176 183 214 175 166 197 194 181 171 204 190 191 193 158 207 180 170 172 189 174 169
272 269 277 278 278 277 283 270 241 222 198 206 211 190 171 180 194 210 186 197 183 192 201 196 191 203 216 203 212 206 206 181 198 197 200 198 200 208 160 183 193 211 190
276 276 271 272 272 268 267 271 269 268 260 246 245 252 208 146 197 154 170 214 218 210 186 206 221 180 192 197 192 181 216 213 211 186 232 211 192 213 219 216 199 190 217
263 258 262 266 265 259 264 262 260 262 275 266 282 273 267 264 266 306 312 248 154 163 249 225 235 234 215 193 223 237 190 204 226 223 228 195 151 201 199 201 216 234 212
294 272 272 268 266 269 281 268 289 290 295 310 292 283 295 273 293 287 273 271 290 318 295 271 229 265 231 226 250 220 220 217 214 231 206 233 222 216 219 221 221 222 230
312 287 288 283 283 285 284 276 275 274 274 270 274 289 292 278 290 296 300 280 289 230 284 298 282 292 275 275 267 263 255 244 242 228 238 236 237 234 239 236 240 250 297
287 296 304 310 314 316 310 285 281 275 276 274 272 266 274 282 273 274 267 263 263 290 253 249 249 265 307 304 300 291 268 252 252 247 251 251 254 255 284 286 305 244 284
314 277 285 279 285 288 290 292 296 298 295 289 283 278 276 285 281 282 265 267 273 273 242 241 295 241 240 287 295 306 304 310 302 304 295 294 292 293 291 250 266 260 266
387 397 312 278 277 271 275 275 272 272 278 280 281 275 279 269 275 279 300 279 290 290 290 297 300 270 277 297 295 272 267 266 269 248 253 265 265 288 264 264 258 298 284
365 367 372 329 291 284 272 264 265 263 267 268 266 266 278 289 286 280 279 286 289 283 289 285 284 292 261 292 287 285 287 289 314 266 266 286 285 279 261 275 277 273 275
384 361 351 353 324 308 287 284 277 265 266 264 278 278 281 282 283 280 281 276 276 275 275 283 284 285 280 290 290 274 270 281 278 280 277 280 276 277 275 268 269 275 264
388 374 354 336 341 327 304 294 279 282 275 273 274 270 259 263 264 267 265 283 283 289 296 328 325 320 318 302 315 325 322 291 290 286 266 280 278 273 268 266 264 262 258
457 430 373 344 330 340 321 299 290 289 290 284 279 276 275 277 281 298 309 309 305 304 304 298 291 289 291 313 316 306 284 294 278 278 280 274 268 268 265 264 264 260 256
404 409 436 366 335 322 342 310 290 281 278 278 286 295 295 289 287 287 281 281 291 296 281 280 276 285 290 289 294 297 292 277 271 272 264 270 269 265 260 260 256 260 253

GFSMW_2pvu_pres_099.txt.gz
Presure
181 175 185 204 161 160 161 159 160 167 196 189 142 176 152 119 179 192 144 184 167 151 128 152 176 160 155 109 131 186 165 178 173 154 167 189 170 179 176 165 166 181 166
182 193 182 172 181 168 149 164 158 171 156 160 177 156 173 168 163 148 142 176 171 166 162 169 136 150 131 134 177 164 184 179 180 163 161 200 187 170 192 177 189 152 163
186 193 175 191 196 193 166 175 173 169 161 176 168 158 174 157 150 135 153 181 159 170 178 161 175 161 166 159 161 194 179 175 178 157 172 182 183 183 165 164 158 170 221
194 189 203 186 173 138 164 172 186 171 164 171 160 158 188 162 170 170 184 181 130 177 137 163 150 177 168 174 159 175 183 220 183 210 168 150 154 162 184 135 172 192 182
191 195 210 187 210 193 188 138 161 160 150 165 150 169 193 167 174 162 172 137 138 171 138 167 203 150 201 171 153 178 206 232 175 171 212 139 177 203 174 163 186 129 140
202 195 194 190 183 173 175 195 217 191 184 158 174 200 152 154 171 177 158 173 153 154 186 167 166 176 191 182 185 212 163 180 166 194 116 125 178 126 132 155 169 160 183
209 196 212 190 190 196 200 186 179 210 187 192 217 149 188 162 163 144 151 153 146 178 163 145 179 177 146 165 186 160 181 175 203 182 184 168 190 182 191 177 188 194 157
208 213 208 222 192 197 191 184 186 207 172 178 178 168 163 167 166 166 186 161 173 182 148 189 175 194 188 160 188 160 196 162 166 177 153 196 191 158 155 195 169 165 179
207 210 200 203 200 191 188 158 173 178 165 178 161 172 180 170 147 216 168 164 162 156 169 156 167 170 160 174 183 197 168 181 173 141 157 184 196 163 168 195 196 190 176
235 204 199 201 215 199 194 207 150 185 178 181 187 188 150 180 176 169 177 174 179 197 178 174 177 178 146 159 180 176 178 192 191 158 183 170 196 212 205 204 177 181 175
242 220 150 200 201 205 204 204 194 194 200 192 177 168 176 167 176 194 157 173 177 184 161 186 170 187 180 168 179 176 180 162 189 169 191 169 169 204 189 220 187 203 210
248 242 245 254 208 207 208 183 202 209 196 183 185 193 207 189 171 185 163 197 181 183 173 176 186 143 172 178 170 170 190 178 191 193 178 183 166 202 214 180 213 205 201
285 247 242 241 220 214 212 206 200 194 196 202 204 210 198 206 186 179 179 180 184 178 173 189 179 141 181 175 168 182 189 223 197 177 178 181 189 187 143 208 195 179 190
272 303 283 245 239 233 235 241 210 201 208 213 217 200 204 220 177 194 197 193 194 149 150 159 200 175 165 143 177 186 171 200 187 176 183 170 188 187 177 200 181 234 222
276 282 302 298 300 253 245 243 237 229 225 217 207 204 196 195 198 210 205 212 211 158 135 132 194 147 144 189 179 144 169 204 201 211 196 189 148 225 211 217 239 157 213
287 293 273 281 275 292 296 298 281 246 242 232 218 217 213 206 206 205 211 216 211 220 202 172 213 206 208 205 211 208 201 211 214 214 227 229 235 231 248 247 247 249 249
291 281 284 266 266 278 278 283 286 293 268 253 271 258 233 227 222 220 210 209 210 209 207 194 183 210 225 210 222 228 234 227 243 250 228 194 233 280 272 263 262 258 236
372 338 284 280 273 272 273 275 275 280 284 293 270 276 272 273 275 264 258 257 235 235 220 218 183 197 254 260 273 273 250 266 291 308 267 266 270 272 267 231 273 264 264
322 359 370 349 319 304 296 295 277 284 278 276 274 274 278 275 275 276 278 285 288 282 291 294 284 255 271 182 265 271 261 269 276 268 274 291 212 188 235 215 293 295 290
311 314 334 345 328 345 307 316 321 296 296 291 277 272 271 273 275 275 280 306 298 245 290 285 254 271 280 282 295 259 248 254 219 266 253 257 291 269 243 244 252 270 302
304 314 326 349 366 326 352 337 299 281 308 310 299 289 288 288 284 277 290 288 308 295 290 270 285 281 272 289 278 287 235 243 270 293 246 262 294 303 305 265 288 272 268
314 317 346 360 359 363 354 353 345 304 289 287 269 296 299 299 299 293 289 290 287 283 287 270 270 279 273 298 299 295 292 286 273 286 280 290 286 287 290 282 283 258 261
290 322 398 387 383 365 364 360 332 350 306 290 279 277 274 269 273 274 274 272 267 268 274 262 289 288 283 286 278 277 276 288 290 291 284 272 269 280 292 277 285 277 270
307 333 483 439 430 482 413 365 343 332 343 304 287 279 276 270 266 264 264 264 268 260 257 286 281 279 279 272 266 288 332 324 323 317 309 309 313 306 285 283 281 273 270
304 352 414 414 418 412 439 385 363 329 334 325 303 285 274 272 265 263 261 262 262 273 271 276 272 268 282 320 313 307 302 295 296 311 313 302 289 277 274 268 277 270 265
289 337 423 468 435 436 431 416 358 326 322 332 315 301 281 268 266 265 266 270 266 266 270 272 274 294 303 297 291 284 282 291 293 302 300 291 287 280 274 267 267 263 265

GFSMW_2pvu_pres_102.txt.gz
Presure
214 197 214 174 210 170 180 176 165 166 206 167 179 169 174 146 150 154 163 160 126 100 207 189 166 124 189 180 149 171 187 170 181 118 184 166 169 135 200 191 169 184 202
190 185 208 160 192 189 169 166 164 173 160 190 163 151 161 173 145 160 167 146 153 115 132 167 144 155 169 178 164 165 164 138 184 180 180 148 171 178 197 168 177 173 170
215 197 193 162 172 193 173 171 177 178 183 169 173 152 141 169 159 169 160 133 171 169 161 170 137 152 162 152 158 170 179 142 162 182 185 174 207 150 192 166 184 193 192
200 189 177 190 199 200 176 181 191 165 167 166 164 164 161 168 178 163 170 178 163 189 140 178 150 157 176 157 130 225 150 194 249 223 179 189 204 186 174 203 194 193 163
188 200 188 179 200 198 168 178 176 177 168 176 178 185 168 162 166 182 175 177 164 145 149 183 158 178 165 191 181 136 173 168 178 171 144 143 181 208 188 209 168 191 177
222 197 207 186 185 200 191 178 175 196 176 190 174 125 175 184 161 143 156 156 147 144 167 150 186 163 172 128 165 150 142 178 188 181 178 213 192 200 218 175 175 125 180
197 203 193 188 189 201 209 191 214 150 178 168 190 188 176 192 168 186 192 177 160 182 155 157 181 149 223 140 172 169 146 155 166 185 199 151 188 149 200 196 148 169 192
221 199 196 186 188 202 181 213 193 200 215 163 188 212 182 172 155 166 184 178 161 197 173 170 144 176 176 163 172 171 161 196 145 175 155 184 163 215 203 133 142 208 150
217 198 205 199 203 181 186 209 178 204 191 170 190 183 178 205 209 160 151 174 222 165 182 189 167 183 182 182 182 204 189 151 184 183 211 173 185 207 178 156 144 180 189
209 210 215 195 202 196 192 199 188 186 191 189 185 173 208 189 154 172 166 195 200 159 160 180 155 155 183 167 161 175 197 191 161 171 178 172 204 182 186 190 195 183 201
217 218 209 195 195 197 200 186 190 197 187 187 186 191 210 190 175 181 214 169 179 166 199 190 205 211 207 202 158 192 174 186 171 163 175 166 186 192 146 158 184 170 191
225 230 209 211 203 192 189 195 201 200 188 195 201 197 195 193 181 204 176 186 189 181 178 179 178 174 169 162 176 175 164 163 173 174 178 176 193 174 190 173 191 196 172
223 227 213 201 205 212 210 186 193 187 186 197 208 194 203 184 198 190 206 191 189 189 188 186 183 191 189 191 187 184 184 171 181 179 137 159 187 154 178 194 175 198 204
261 236 224 227 216 202 202 206 200 203 207 203 193 184 180 181 194 188 202 215 186 178 183 179 179 178 178 185 164 162 173 177 150 174 148 176 146 147 197 194 217 220 198
264 266 256 224 209 208 213 204 204 193 193 188 200 204 202 197 193 195 202 189 182 185 189 195 199 194 191 175 194 178 188 135 135 203 195 156 192 208 203 196 184 212 221
287 273 305 262 276 257 214 212 200 187 207 211 202 203 197 200 202 203 205 203 206 201 210 183 200 193 198 206 200 202 200 157 193 210 189 218 221 223 218 209 218 222 219
370 347 325 299 281 275 246 249 259 226 217 209 208 205 203 202 201 201 178 188 195 196 211 197 206 199 210 205 196 197 192 213 213 215 206 205 210 220 218 217 228 234 241
194 268 333 346 364 397 366 349 286 250 253 260 240 233 226 217 216 215 215 215 200 212 209 211 209 211 216 211 216 217 218 218 211 204 216 224 220 228 219 239 231 219 309
270 225 253 316 324 331 333 352 372 384 303 273 257 253 262 257 249 241 217 217 221 238 216 219 220 224 223 218 222 233 227 226 183 219 232 234 236 287 274 277 274 275 243
247 257 253 284 317 317 334 343 341 333 348 356 335 309 310 258 251 247 245 241 240 238 239 234 234 231 231 232 236 234 239 248 241 243 286 296 263 295 287 262 290 290 293
270 262 258 198 313 315 323 356 344 343 324 332 344 347 346 308 298 296 260 248 257 259 256 255 256 261 281 278 258 233 239 259 270 263 277 300 290 291 296 281 310 282 288
264 287 287 270 324 329 328 368 360 352 353 324 338 330 328 339 326 293 287 284 278 278 283 286 282 270 263 260 263 275 287 281 275 262 260 296 276 298 280 295 292 286 279
246 245 253 269 294 325 416 468 440 440 404 354 349 334 327 327 336 326 301 311 314 315 312 301 307 287 282 286 305 297 258 253 270 274 252 292 293 287 288 281 311 287 284
258 253 264 271 341 336 399 423 456 416 421 424 360 342 333 316 321 326 316 289 295 297 296 298 295 270 296 292 278 276 268 255 270 270 284 288 293 285 333 328 321 299 291
245 264 275 315 319 398 378 399 425 408 410 448 427 352 341 324 315 313 315 292 279 280 284 281 286 284 264 275 271 264 261 263 275 278 274 286 305 301 301 306 312 306 300
262 246 276 302 346 386 374 425 437 429 424 430 395 357 341 321 311 341 305 297 282 275 273 270 264 263 268 262 265 260 258 255 268 274 291 287 284 290 306 298 290 282 279

GFSMW_2pvu_pres_105.txt.gz
Presure
132 150 136 131 135 74 140 147 153 172 180 179 152 176 175 175 146 157 165 185 187 155 114 110 161 172 180 171 144 167 172 135 219 164 133 166 177 164 182 167 179 198 215
148 141 141 144 144 148 148 152 157 183 186 178 190 172 173 143 177 152 112 177 168 140 133 154 176 157 155 147 108 160 159 164 158 183 174 178 195 141 185 171 178 113 189
161 153 176 170 150 149 183 168 200 181 169 182 175 176 171 186 158 163 162 173 157 143 154 141 150 180 169 168 141 163 180 173 167 148 184 176 148 142 136 183 196 175 180
170 164 165 167 162 151 152 206 189 181 177 173 176 165 184 169 175 168 181 160 169 173 139 148 164 166 173 175 176 135 180 146 120 191 166 161 151 191 149 190 152 204 179
171 169 166 166 160 159 188 157 201 178 182 176 178 167 154 157 178 171 172 167 176 158 170 155 136 155 138 169 140 142 172 200 147 164 137 195 149 151 127 135 186 142 173
171 172 184 182 187 190 198 169 202 201 201 179 171 173 174 170 172 175 183 192 169 177 151 180 168 148 144 142 167 177 149 164 164 132 177 146 153 162 158 219 160 156 175
206 190 188 197 197 190 189 212 186 198 188 182 169 166 179 176 185 170 166 178 180 178 167 159 179 156 164 166 166 168 131 183 179 145 176 148 167 122 207 139 189 219 162
213 207 201 206 209 191 217 209 180 211 191 181 176 194 188 194 180 188 178 178 200 193 193 187 186 168 179 155 153 161 154 178 182 171 148 167 200 220 185 182 186 164 197
204 219 205 207 207 199 189 215 183 193 191 174 179 174 193 192 182 182 164 170 204 201 164 162 193 181 166 170 147 182 198 198 154 181 208 141 185 156 203 165 197 205 210
206 208 205 195 194 193 190 189 192 195 190 206 194 209 178 180 179 192 198 172 170 174 181 179 185 187 170 171 177 172 183 175 176 201 165 173 191 163 198 163 193 191 205
217 210 192 204 189 195 197 186 190 200 196 203 213 201 185 196 180 189 176 185 191 188 181 200 204 166 177 196 161 163 188 183 196 199 184 185 188 166 201 182 165 173 202
206 221 203 217 200 222 215 183 179 198 198 204 181 188 198 220 189 204 201 177 195 180 177 211 204 205 179 203 181 201 191 179 197 200 180 200 202 177 175 163 166 216 174
226 216 206 202 210 197 202 187 191 202 192 207 212 194 190 201 202 203 180 180 188 147 147 188 199 183 207 179 214 201 188 171 192 188 180 183 185 185 162 190 185 186 162
239 205 213 218 199 198 208 183 207 183 200 180 204 195 194 177 182 188 186 206 211 190 199 196 202 191 195 192 203 206 165 192 176 179 204 194 198 193 152 174 190 144 150
217 232 228 213 212 213 221 194 208 187 214 212 204 203 190 192 193 185 199 202 189 189 187 192 191 191 195 188 197 191 200 203 198 184 189 156 197 199 191 176 144 146 197
173 231 211 233 217 229 214 231 204 227 193 199 202 201 167 196 193 194 193 216 203 160 159 159 200 202 192 192 183 180 194 199 194 179 188 210 182 195 181 209 196 220 203
237 218 237 110 108 228 199 202 226 189 217 203 216 215 205 200 192 192 186 201 202 187 175 196 192 169 168 167 168 188 189 192 196 205 194 207 200 197 201 198 208 212 217
319 278 153 169 209 214 207 195 223 215 209 184 193 204 205 210 205 186 214 217 196 199 210 218 201 200 192 210 187 189 207 202 201 203 198 203 205 207 210 200 196 203 212
237 245 265 267 271 260 303 340 235 247 215 218 220 199 221 218 198 193 202 199 200 203 218 206 212 209 201 202 200 205 208 206 206 212 197 187 195 205 207 221 217 221 207
277 188 270 230 257 287 270 257 249 251 357 353 350 253 237 241 229 227 216 216 215 216 221 218 215 216 212 212 222 223 215 209 212 213 188 218 216 229 208 219 216 244 244
257 203 233 235 235 259 279 272 310 331 288 317 350 346 337 346 346 301 273 246 234 229 226 210 223 206 217 207 208 208 209 212 209 200 227 214 216 224 213 241 227 236 303
245 242 252 246 246 255 267 330 334 373 360 363 372 364 322 369 360 350 322 315 303 230 242 234 230 229 223 223 218 206 213 211 214 218 217 239 249 241 232 235 284 273 292
230 233 228 256 254 312 340 393 374 356 353 364 376 409 386 391 436 364 343 317 306 311 319 322 294 310 252 247 245 242 243 240 237 237 236 236 207 278 270 248 278 270 295
228 257 253 240 252 346 395 377 352 350 361 389 375 379 393 402 419 409 399 332 315 300 296 318 304 307 316 313 296 311 281 288 279 278 290 280 276 240 277 268 276 283 266
241 239 249 254 358 409 385 364 358 350 372 371 422 449 435 414 412 416 413 364 327 307 296 296 292 292 293 300 302 306 303 300 299 277 295 290 272 248 264 273 264 267 299
237 225 271 246 255 406 381 358 355 364 351 372 427 419 396 407 409 394 370 368 341 312 307 305 307 298 289 286 282 280 291 276 264 268 264 273 266 260 258 263 277 303 290

GFSMW_2pvu_pres_108.txt.gz
Presure
162 134 135 139 142 147 142 128 134 136 93 133 132 130 133 135 143 153 168 166 176 136 175 177 166 150 163 165 153 153 175 162 138 169 120 147 138 134 169 179 166 188 163
129 135 138 136 133 136 133 144 145 116 140 148 140 141 144 137 151 156 195 198 175 179 156 189 165 170 176 178 175 177 158 168 118 173 177 163 194 183 179 175 163 148 163
251 136 148 133 139 133 142 136 100 143 142 143 139 135 138 149 166 174 190 187 184 217 163 179 179 146 167 157 170 181 147 173 183 160 169 156 169 131 166 150 174 155 159
140 130 128 128 141 140 130 140 142 139 135 139 136 141 147 151 153 162 191 203 179 193 179 162 160 185 158 183 155 153 168 187 146 166 155 130 174 140 151 140 160 171 156
132 136 135 132 133 132 139 87 138 142 143 143 144 144 150 152 162 177 172 178 179 170 178 173 174 175 172 171 183 167 198 185 161 139 138 142 166 140 170 176 139 124 180
143 138 163 174 138 138 144 161 159 152 152 170 196 197 157 188 170 148 164 185 174 189 162 165 179 174 178 198 174 203 168 179 174 149 193 147 168 164 146 172 187 177 156
179 172 203 221 214 178 155 193 167 164 166 182 166 161 155 196 177 183 164 166 183 180 180 179 173 166 201 169 167 182 177 187 180 194 185 164 182 182 189 155 164 197 171
169 171 171 164 191 164 167 173 184 185 163 161 191 189 174 174 163 180 188 169 174 180 181 166 177 177 157 175 189 175 204 167 169 194 174 171 166 151 156 195 160 192 160
239 184 180 174 171 172 171 171 170 171 170 170 197 175 167 185 174 187 198 187 171 178 180 180 168 161 163 174 178 183 177 199 182 189 184 147 131 194 193 205 191 151 188
233 210 220 185 206 189 188 215 184 171 203 164 173 166 187 182 185 212 195 188 172 185 201 192 196 187 177 176 183 177 178 172 196 174 197 168 156 162 196 195 216 178 182
218 205 207 205 207 209 200 204 205 198 197 175 175 182 189 178 190 195 186 205 193 201 209 202 178 182 180 186 172 176 183 190 195 213 209 178 179 151 193 195 187 183 191
217 244 220 232 212 209 213 200 184 201 195 195 192 194 204 210 209 200 184 190 201 196 196 186 191 164 187 183 199 181 171 176 191 218 195 200 194 182 212 176 196 176 152
246 227 216 212 207 210 207 208 196 191 206 191 194 193 198 200 193 198 188 200 190 199 199 186 181 173 174 170 168 184 204 201 203 187 201 188 176 186 159 193 190 183 206
229 227 219 216 217 196 194 199 202 199 205 201 205 201 209 204 192 206 197 202 208 189 196 192 176 187 184 212 198 216 213 211 207 208 191 193 193 198 189 196 185 228 209
232 201 201 225 213 229 211 194 202 211 207 202 204 208 175 194 191 169 210 214 204 185 187 170 205 212 203 193 208 202 204 193 158 187 187 179 179 193 196 192 203 212 199
221 229 209 225 224 210 222 220 212 206 183 200 147 213 214 222 205 205 204 205 210 191 200 212 185 207 204 202 201 183 186 193 200 203 161 202 214 195 191 199 213 191 198
205 221 220 193 227 211 209 100 99 210 213 203 205 205 204 187 187 199 201 190 192 202 199 194 191 187 194 194 198 206 170 183 183 180 189 202 182 194 183 194 191 202 188
199 208 196 211 207 194 209 184 190 215 222 215 207 203 210 206 203 202 202 212 216 214 207 191 198 199 196 194 200 202 202 195 197 205 199 202 189 198 210 195 208 199 197
204 255 210 199 150 206 236 193 212 192 187 211 193 193 222 207 215 206 210 216 204 201 197 206 219 216 200 209 198 200 205 198 201 208 187 191 212 172 175 188 191 188 212
190 275 224 211 237 221 239 201 202 204 233 231 213 216 191 228 188 225 224 204 213 201 218 201 210 201 206 198 203 194 203 184 201 192 191 195 199 211 183 191 199 212 194
245 277 233 193 207 167 246 259 256 258 277 224 229 210 229 256 252 211 227 239 224 219 216 222 208 208 208 202 210 208 204 205 197 201 192 203 205 211 212 205 196 205 203
224 207 222 249 207 230 199 246 339 271 240 241 248 230 262 260 266 285 288 238 233 258 251 268 254 232 228 231 218 213 212 209 202 203 215 204 203 199 199 200 199 212 203
184 213 245 227 258 255 306 319 266 285 428 422 345 239 399 380 245 242 232 270 273 325 351 302 343 316 320 324 277 234 227 220 215 218 216 214 204 203 200 201 205 208 181
193 201 218 244 250 242 245 278 469 454 446 429 377 364 415 406 393 400 408 413 410 405 406 287 271 260 250 251 253 306 305 290 241 220 217 211 211 247 223 207 203 236 266
186 202 215 247 262 286 270 293 461 458 415 383 360 398 416 370 379 431 444 453 464 439 404 388 406 390 386 309 298 299 296 312 303 298 307 303 293 293 286 302 283 293 289
177 197 183 245 262 245 309 288 418 393 453 455 418 426 365 356 450 441 414 413 410 418 415 431 402 364 358 315 306 291 296 301 324 317 312 313 300 293 286 281 279 281 270

GFSMW_2pvu_pres_111.txt.gz
Presure
149 314 218 245 248 240 169 104 236 238 160 124 156 131 126 130 132 133 95 140 134 131 145 137 142 152 165 190 164 167 139 162 178 156 183 167 175 189 137 162 190 161 153
146 191 129 165 160 208 218 272 156 142 130 213 128 142 142 134 129 135 142 141 133 129 133 150 154 183 158 199 201 170 166 176 165 171 164 182 135 155 138 155 141 151 148
140 159 163 166 155 207 156 162 129 151 142 183 157 139 136 136 143 145 143 130 143 146 160 138 140 144 155 177 172 174 174 157 156 164 177 183 165 180 122 142 156 148 148
270 255 153 224 234 255 141 169 151 137 185 138 102 126 133 141 137 134 134 138 142 143 153 142 165 153 196 205 167 194 188 149 162 177 184 172 190 166 177 195 159 179 115
132 230 238 157 223 222 254 254 134 139 137 163 147 139 137 139 135 140 141 148 159 144 153 149 167 155 167 167 162 148 169 195 189 185 169 137 176 133 170 195 127 140 170
135 133 165 202 216 178 139 148 142 193 144 135 109 127 147 127 134 145 143 143 151 154 168 163 165 187 180 175 180 168 194 185 174 170 175 186 179 207 169 206 147 177 169
149 144 164 142 141 139 137 135 149 167 182 148 142 142 150 145 144 146 158 158 154 181 170 178 170 184 175 198 154 174 182 191 182 163 174 180 167 203 187 181 185 182 181
197 174 150 151 153 149 146 142 144 142 143 144 143 146 144 141 149 152 153 157 156 170 167 181 178 176 197 192 171 160 172 162 172 192 149 211 190 174 165 175 177 176 161
203 183 197 163 159 154 145 143 144 144 147 149 177 193 213 184 158 166 203 165 165 182 163 193 191 195 173 173 193 170 181 210 189 209 169 189 184 168 166 183 185 189 177
270 203 196 182 166 194 160 223 173 176 176 200 189 194 197 189 203 173 176 165 169 167 164 165 194 175 192 184 183 186 176 177 183 174 187 177 185 201 190 174 184 183 183
263 260 199 211 188 175 198 190 191 207 167 169 186 178 195 187 168 169 189 166 173 175 179 183 199 181 175 188 182 169 177 169 171 164 195 204 183 194 189 172 181 166 183
273 236 220 239 203 200 183 202 195 183 177 174 209 190 205 214 179 180 188 186 184 183 209 204 184 175 172 166 182 157 184 191 198 175 201 189 187 187 188 179 170 179 201
268 233 239 213 222 190 191 237 200 187 200 199 186 184 203 179 177 176 195 190 180 190 194 195 189 171 180 179 193 169 152 161 168 188 180 174 188 183 190 198 188 210 200
242 255 238 229 223 258 223 210 230 210 224 209 206 221 204 193 197 213 194 192 190 188 193 197 204 195 177 181 167 184 188 203 204 180 193 190 210 189 182 166 199 212 189
215 249 230 246 254 219 214 241 206 199 201 216 189 127 200 200 181 192 180 198 202 182 187 173 201 184 193 192 197 194 185 203 192 191 196 201 195 206 201 199 191 184 184
234 234 242 242 230 228 230 227 198 201 204 188 96 98 214 201 205 205 199 171 187 205 213 204 211 212 210 203 207 200 200 205 207 210 202 183 184 193 214 198 210 170 186
246 226 244 235 254 228 248 215 219 214 213 205 215 209 190 203 210 216 203 216 208 193 213 201 184 181 185 202 190 201 197 210 207 191 199 194 181 178 180 183 192 206 207
179 224 252 212 225 255 242 237 199 203 213 217 197 197 200 220 214 214 204 214 213 204 186 193 202 194 195 202 191 197 199 194 194 199 208 192 187 182 186 178 181 188 194
245 204 249 245 222 203 220 251 235 209 194 172 204 213 203 205 223 209 241 216 222 210 217 207 203 215 214 212 187 211 193 212 196 195 191 190 185 188 197 180 206 183 190
237 159 183 159 226 206 203 218 204 189 182 245 236 240 213 201 210 192 220 230 206 223 213 210 223 201 203 198 216 192 201 199 199 192 195 191 217 185 211 193 194 210 203
209 173 202 161 155 201 97 206 193 208 215 225 229 223 258 229 219 203 209 215 217 210 222 207 227 190 211 213 217 223 225 208 214 194 195 208 205 205 200 207 205 182 187
165 172 181 184 165 214 186 259 227 233 298 308 245 242 232 325 464 416 276 261 244 226 253 264 255 235 234 219 223 227 225 213 215 216 205 197 197 190 198 219 202 198 192
144 159 152 178 144 147 258 206 272 282 288 285 389 276 275 413 382 446 429 241 243 234 255 257 282 285 298 259 240 247 280 272 265 261 225 212 216 257 188 196 173 178 193
145 194 225 190 173 194 236 188 241 257 257 321 423 454 420 417 379 404 410 362 382 432 419 412 413 397 273 270 265 243 242 264 287 289 283 334 237 309 269 281 290 273 274
174 174 152 146 159 179 241 230 256 276 310 285 456 434 399 454 355 350 432 411 384 426 472 465 422 407 389 386 383 365 357 338 284 236 237 239 276 227 227 270 263 252 289
137 181 205 202 205 207 205 268 264 280 266 335 448 420 389 355 346 479 390 383 377 391 426 422 432 458 444 405 385 365 378 342 325 320 310 309 294 293 271 331 276 287 287

GFSMW_2pvu_pres_114.txt.gz
Presure
148 168 201 146 133 147 143 143 136 152 143 78 161 239 219 215 170 182 122 133 123 165 129 143 125 123 137 138 143 153 194 140 147 155 175 225 170 163 177 173 170 183 163
146 155 152 146 145 145 142 129 129 151 154 160 227 147 169 110 150 121 125 128 147 141 170 155 125 139 132 139 143 147 144 172 144 175 186 155 177 201 157 183 160 197 174
151 153 153 148 148 151 145 140 143 150 168 125 162 238 174 204 134 175 169 132 129 134 130 130 127 140 138 149 147 140 172 151 161 163 156 175 142 175 185 177 185 188 180
140 129 137 138 147 129 139 139 169 194 221 234 154 157 109 145 130 187 134 134 135 170 127 126 141 134 139 143 145 157 153 144 151 152 184 173 192 210 199 177 167 193 155
140 150 141 142 159 153 147 120 157 195 182 248 219 128 221 131 201 153 126 135 125 137 135 136 140 137 141 150 147 154 157 153 152 148 165 169 179 147 154 191 162 143 167
175 167 150 129 236 139 119 191 145 164 142 235 136 195 142 180 191 137 149 146 123 148 132 135 134 145 144 151 153 171 170 150 205 174 214 179 196 179 166 205 179 174 175
162 182 213 171 207 136 185 126 152 144 148 240 205 160 140 158 149 105 132 135 164 162 132 141 144 159 154 171 153 154 156 153 206 202 190 179 162 188 185 187 161 172 208
273 215 166 146 163 168 160 134 212 152 144 205 158 165 136 192 134 137 160 150 140 142 144 146 147 194 154 152 180 161 155 162 172 168 177 189 185 193 195 162 188 164 188
278 255 206 180 171 155 143 135 135 161 193 199 154 200 151 131 142 160 140 132 143 148 155 190 159 200 176 188 175 154 172 171 174 183 184 190 204 192 163 176 180 213 170
276 286 250 201 185 225 174 153 150 145 144 189 225 149 144 146 141 145 148 151 175 196 204 171 184 190 163 160 157 175 187 188 175 187 167 195 191 201 150 182 155 181 181
262 270 265 227 158 216 199 223 175 222 194 157 202 175 188 166 178 193 192 193 193 183 170 193 180 187 179 204 161 190 178 190 198 190 175 177 190 196 190 203 183 207 179
261 257 273 258 212 211 196 195 209 218 214 214 214 209 168 205 184 189 175 196 203 201 209 216 210 207 186 181 187 171 166 180 184 208 189 192 192 197 194 165 181 190 197
264 265 245 245 253 209 209 197 233 223 228 194 185 227 224 200 190 203 198 191 197 198 187 218 205 181 183 182 169 200 209 184 191 193 195 179 187 198 199 178 192 194 187
254 248 254 253 243 225 202 202 203 226 183 207 226 190 210 210 193 198 197 203 204 224 197 195 202 197 191 193 192 181 210 192 185 182 187 162 174 181 195 187 187 191 190
269 249 239 255 247 244 224 206 193 197 212 215 225 213 207 194 196 155 169 193 204 200 185 181 177 163 204 186 191 194 203 194 203 198 201 196 195 200 195 179 190 197 192
283 257 245 261 227 256 236 236 227 235 204 219 218 227 224 210 222 204 215 205 204 203 201 196 208 197 198 214 207 202 208 222 197 203 202 199 195 197 181 182 180 183 182
273 289 256 224 216 250 238 236 211 203 243 226 218 219 203 196 231 207 216 217 202 212 228 228 213 211 200 213 193 221 218 214 187 192 190 195 184 183 194 177 175 195 194
271 215 256 255 238 245 254 255 203 232 214 189 231 234 214 234 219 197 214 214 211 198 209 222 213 214 217 210 196 195 218 208 209 198 209 214 185 179 192 200 195 176 192
139 196 137 187 189 190 207 111 192 205 194 198 240 169 182 198 223 231 198 228 188 219 229 195 197 208 215 221 213 219 214 214 193 209 208 195 192 202 185 208 194 219 193
126 220 248 172 175 219 205 173 100 125 159 211 167 184 216 224 235 267 243 228 238 211 215 244 235 217 213 229 226 219 220 209 210 204 192 197 193 191 191 189 207 200 211
156 139 144 145 160 223 196 197 159 137 91 147 142 112 215 241 270 256 263 263 265 312 279 241 254 241 233 222 226 219 216 176 186 212 189 208 216 179 211 194 212 193 195
174 119 135 186 131 219 160 183 140 158 176 160 153 154 284 261 288 394 492 376 456 394 420 417 371 322 455 345 264 235 234 237 235 234 227 219 203 209 202 200 191 193 195
165 142 198 142 165 157 151 180 167 147 167 141 165 288 273 291 354 502 477 448 424 403 396 391 386 374 432 425 308 287 278 250 234 237 243 234 254 252 229 219 216 203 213
182 134 152 187 136 189 170 154 153 204 171 205 265 277 272 319 426 452 417 401 382 375 370 361 361 359 358 418 414 418 278 252 401 371 343 301 260 253 251 243 224 239 229
132 189 139 130 124 158 176 180 176 194 158 195 250 263 301 339 456 426 396 374 352 415 483 438 418 406 411 417 406 415 366 389 408 403 375 341 248 241 240 279 249 236 232
145 183 141 125 154 220 169 229 177 222 190 261 260 281 303 462 568 474 375 455 476 434 392 382 379 380 386 395 459 418 380 405 387 391 378 378 349 309 317 323 307 283 290

GFSMW_2pvu_pres_117.txt.gz
Presure
119 127 126 131 126 146 138 137 151 137 150 135 127 114 83 135 151 177 160 145 182 158 176 119 128 162 125 123 126 127 149 115 131 133 126 141 135 137 139 129 169 183 184
124 129 137 141 138 151 155 137 200 156 139 143 122 146 128 143 142 203 154 139 169 148 127 122 129 119 143 127 126 161 138 126 135 133 142 142 144 138 173 165 167 165 175
123 135 166 134 132 141 144 166 161 156 181 144 135 145 82 152 126 92 192 144 164 153 122 163 145 147 128 124 127 175 143 135 132 144 139 149 143 167 142 157 173 179 164
135 130 138 141 139 146 152 153 157 147 141 143 168 148 142 149 145 136 154 122 144 166 217 119 182 125 127 133 135 134 124 139 139 135 144 140 143 145 147 169 190 190 174
160 151 141 139 128 146 246 140 135 142 126 146 124 151 125 127 135 161 162 266 220 172 204 143 206 151 124 135 134 127 137 136 144 143 187 157 144 151 185 152 201 185 159
258 155 158 156 154 146 158 193 159 201 134 137 125 133 138 151 243 177 136 111 186 128 217 182 129 135 121 137 125 145 132 139 150 138 187 173 160 157 160 165 158 220 208
156 154 120 121 121 159 253 252 135 131 117 110 126 169 151 141 140 176 220 196 147 128 205 125 132 160 192 161 132 137 141 169 155 149 161 180 187 150 191 167 172 159 177
171 323 167 130 132 126 140 294 176 166 288 283 122 133 250 137 171 162 148 134 192 189 125 183 146 145 199 200 134 142 146 167 191 158 175 186 191 195 168 173 171 189 209
321 227 291 184 182 230 172 263 150 138 148 135 143 172 184 171 167 154 133 143 168 197 143 133 131 213 184 146 146 158 184 152 204 179 186 158 167 177 168 181 180 191 167
275 293 284 204 200 199 163 240 203 189 191 165 169 163 164 148 144 141 204 190 142 177 161 210 150 147 203 171 197 202 189 189 214 201 172 178 200 213 204 184 185 172 172
273 270 269 255 281 219 245 265 263 244 172 199 167 149 162 138 155 204 174 231 219 187 210 199 188 185 195 209 190 203 219 215 212 154 199 208 202 186 168 188 181 196 180
259 270 270 253 258 255 256 204 192 249 180 244 161 164 157 158 241 205 216 210 221 213 203 193 214 175 191 162 191 177 200 162 192 199 197 190 174 193 186 195 193 186 180
258 271 266 255 258 266 226 256 252 175 148 140 138 176 180 177 192 208 201 204 194 206 210 208 220 207 205 194 191 201 207 201 203 197 179 185 178 179 196 197 188 190 187
263 254 257 249 205 254 242 226 241 229 232 215 221 194 190 192 167 189 207 196 214 219 224 193 205 201 209 199 189 214 208 207 204 211 195 203 207 196 214 197 194 197 191
266 253 271 265 253 251 240 225 227 230 227 214 204 201 197 206 209 223 222 191 197 204 211 185 194 202 215 205 198 197 209 202 185 180 181 209 204 214 190 201 204 197 188
253 263 257 256 244 261 242 197 225 249 197 189 179 202 211 205 223 189 198 203 227 210 205 199 212 221 215 219 216 205 193 219 197 183 208 213 200 218 202 203 207 195 200
188 182 247 249 236 252 235 260 257 248 220 232 220 212 221 200 197 205 214 223 213 215 210 229 230 234 210 227 213 226 209 204 203 211 213 192 192 198 199 189 213 189 201
187 191 248 200 148 253 250 259 247 240 252 233 233 226 238 227 233 210 216 218 243 220 214 211 238 225 209 220 227 219 222 226 198 214 212 193 202 206 210 217 201 201 203
124 199 138 138 233 271 250 149 170 150 152 105 209 128 198 141 195 177 163 136 210 177 192 176 225 234 248 201 222 214 196 211 215 229 215 200 190 187 203 191 200 180 191
159 156 158 190 124 117 143 252 156 139 124 117 154 163 229 174 154 123 101 131 177 111 200 215 257 245 241 229 233 252 245 226 227 223 219 252 220 226 194 193 164 222 201
126 120 138 117 128 166 138 129 155 148 120 150 141 228 125 159 155 141 203 184 180 183 310 251 287 227 239 251 320 273 279 254 232 240 226 233 226 228 218 212 216 186 175
131 202 116 164 156 142 143 140 154 181 178 152 150 184 154 147 195 130 171 132 227 261 521 340 132 450 410 380 428 380 278 255 240 253 253 251 248 258 236 225 212 218 197
153 148 160 153 173 125 149 151 134 182 145 150 151 91 195 239 207 116 113 310 377 558 586 569 560 412 394 390 387 389 390 400 416 437 257 262 276 259 274 294 239 276 223
185 173 180 176 169 160 200 181 149 179 171 134 238 136 127 265 272 262 284 328 583 570 554 535 522 379 402 386 356 362 391 381 400 395 426 407 390 367 294 242 251 293 281
254 245 213 204 210 163 205 202 181 183 144 132 135 136 204 238 266 265 300 386 555 541 520 498 487 468 449 434 435 424 364 338 375 378 433 413 397 385 372 337 314 297 268
233 233 240 229 226 178 187 172 143 197 146 139 174 139 217 243 266 283 304 564 528 489 476 367 406 398 385 383 379 374 379 383 391 387 329 415 395 375 372 357 345 324 285

GFSMW_2pvu_pres_120.txt.gz
Presure
124 104 141 139 128 133 130 136 116 129 105 188 117 99 187 141 133 143 242 153 102 101 139 163 141 133 134 141 120 161 117 139 125 115 176 120 123 129 128 134 126 139 126
134 125 126 106 125 145 128 144 128 108 128 118 165 169 193 145 166 153 160 121 114 129 139 170 144 130 158 140 117 116 123 178 131 120 135 175 121 122 138 129 133 131 136
136 129 135 131 136 135 135 132 137 160 137 142 147 130 144 126 132 170 105 110 138 142 125 146 193 162 136 118 151 159 144 149 123 124 133 126 117 124 140 141 134 127 163
137 140 134 128 125 135 130 137 135 134 182 139 188 157 149 138 168 128 160 123 174 157 136 144 188 160 149 217 139 150 150 158 128 127 140 125 144 137 136 134 152 174 139
136 141 138 139 138 142 146 82 150 140 143 139 142 130 130 155 126 131 145 146 151 135 197 138 171 126 127 232 113 163 135 121 127 131 132 126 121 173 131 144 133 162 159
137 144 148 151 151 131 140 146 167 149 120 139 140 141 166 144 155 143 139 150 146 160 125 127 115 178 155 210 206 206 127 122 152 168 115 146 127 172 140 189 144 173 181
149 149 148 144 144 143 140 147 146 146 144 141 136 123 127 129 120 163 116 117 138 156 135 138 160 160 146 203 157 123 150 165 133 133 142 138 141 142 150 154 153 179 205
153 153 155 264 153 146 123 123 287 126 125 131 140 151 176 171 146 104 134 134 140 121 177 157 214 240 179 135 214 128 140 121 135 140 151 199 188 166 141 185 144 206 180
314 283 187 146 265 129 131 291 132 153 125 135 128 123 124 129 150 129 125 129 131 155 249 153 234 134 149 237 173 196 127 201 125 203 203 160 221 206 198 196 209 210 182
308 318 304 284 248 169 182 164 232 236 273 240 277 144 140 301 286 150 189 235 187 168 227 150 132 194 158 143 144 204 206 201 193 201 201 191 150 166 167 191 191 188 179
285 286 296 298 260 250 256 254 273 278 276 235 215 287 243 292 243 194 183 257 276 200 168 135 190 147 194 214 214 216 182 171 169 158 200 187 194 173 193 189 206 166 196
260 260 270 275 287 268 239 236 255 261 267 192 185 237 206 263 194 191 182 155 200 148 187 188 164 152 168 203 209 194 218 214 207 187 207 214 167 185 202 192 177 206 172
255 247 251 255 263 269 273 230 233 250 264 242 267 173 270 202 258 256 247 175 201 210 176 184 174 204 205 208 200 220 211 206 160 212 202 206 213 203 193 183 202 193 204
206 259 245 250 243 258 239 237 252 249 243 256 243 250 192 257 217 213 249 181 214 210 237 221 217 204 230 217 226 202 215 197 228 224 182 179 196 187 205 191 198 188 194
279 261 253 244 257 245 245 246 234 227 250 248 264 257 238 226 244 235 237 207 169 207 202 200 234 192 207 187 199 213 222 205 201 220 199 211 205 220 201 195 196 211 212
265 259 271 262 257 260 261 256 238 228 232 193 198 221 215 230 239 238 222 215 224 217 209 197 202 205 209 205 216 217 213 207 227 206 222 215 213 223 215 201 184 178 186
166 257 133 192 211 233 204 249 243 206 191 223 230 223 224 227 221 209 199 210 208 206 191 197 193 130 137 227 195 198 205 215 206 190 233 231 231 223 207 200 201 201 206
132 175 249 134 251 157 145 126 251 235 188 229 188 168 195 238 242 200 238 225 101 232 121 164 197 229 186 132 202 192 230 222 235 215 232 201 205 200 217 217 213 209 195
145 163 145 228 123 198 128 135 140 149 151 127 124 156 212 162 189 146 182 186 119 99 175 129 182 172 203 161 181 197 233 252 207 204 209 209 204 243 218 225 217 208 216
179 150 168 212 148 152 147 137 178 160 145 144 137 146 146 148 214 139 100 155 153 137 158 178 153 217 145 191 251 219 249 238 259 227 228 233 227 222 255 209 221 234 214
148 167 160 131 124 124 124 116 211 179 186 140 144 154 133 225 173 122 125 137 118 172 188 204 114 223 173 140 391 218 269 288 212 240 269 259 264 256 243 238 239 209 229
209 209 188 174 172 156 166 196 135 152 120 183 212 206 184 172 162 137 140 138 117 111 156 256 113 219 404 134 445 516 138 467 518 461 433 457 447 442 359 271 301 267 238
199 197 200 202 202 202 197 190 193 193 202 203 194 218 197 188 203 141 137 150 159 127 286 296 325 571 527 523 521 525 531 545 465 391 385 394 428 427 446 441 389 254 254
238 227 234 240 240 242 237 233 216 215 233 210 198 201 164 248 157 107 146 144 100 268 252 295 324 537 476 447 439 435 444 498 526 545 376 362 377 405 408 440 416 399 379
239 242 236 236 235 238 233 233 224 171 220 205 219 197 211 190 201 158 153 161 184 286 276 312 430 467 425 414 402 390 395 402 407 417 441 412 341 363 378 389 417 398 376
227 226 224 227 221 213 214 112 232 212 229 241 194 206 172 231 227 144 151 168 208 279 280 312 354 441 413 394 398 386 379 374 382 400 395 404 359 331 353 364 401 375 371

GFSMW_2pvu_pres_123.txt.gz
Presure
147 143 151 131 151 150 152 123 199 128 85 135 125 130 198 184 137 105 128 95 151 160 137 129 122 137 123 121 144 191 165 164 132 138 118 188 118 119 137 156 134 112 118
141 142 125 139 91 157 129 149 129 141 118 110 120 150 117 141 146 148 143 172 91 132 235 186 114 107 128 149 102 148 163 163 167 160 141 165 196 126 126 144 128 124 129
147 149 152 147 140 137 139 140 138 146 134 118 133 133 117 104 134 133 140 211 163 149 167 166 147 124 134 139 131 154 168 162 124 150 152 196 147 165 169 120 135 127 129
142 134 147 134 133 130 135 136 132 133 142 126 131 128 136 142 136 182 194 153 135 179 140 132 115 164 182 180 129 137 156 163 124 119 133 163 125 190 141 121 128 143 152
156 152 134 133 134 140 141 142 140 135 139 145 147 130 136 139 135 135 141 138 126 131 123 123 133 136 88 159 125 166 152 132 121 122 142 155 157 129 198 123 137 119 125
138 133 128 136 131 135 135 141 137 140 137 141 123 146 149 143 125 162 139 132 163 141 192 127 150 145 143 151 164 133 142 154 125 117 109 193 170 166 145 145 129 144 157
137 126 135 160 147 150 134 143 144 138 138 139 137 139 141 141 140 138 108 136 135 103 144 141 112 127 121 144 122 115 139 156 146 169 133 153 178 143 146 118 114 128 128
148 167 153 144 143 143 143 143 142 142 144 141 140 139 122 123 127 127 125 128 134 142 146 144 103 157 124 201 162 137 143 135 148 131 171 212 136 215 184 140 151 191 125
149 133 156 151 148 153 150 148 145 145 146 306 140 140 271 148 135 127 128 128 143 134 122 126 197 153 159 155 139 181 140 166 134 164 219 187 196 140 194 206 206 208 204
251 154 210 249 130 162 215 217 218 145 194 196 171 230 143 123 285 204 228 267 180 179 171 163 152 170 171 179 156 151 212 217 239 211 197 181 179 196 209 194 179 155 157
254 305 310 281 272 281 163 162 187 300 299 292 295 303 314 274 171 172 188 312 266 158 142 141 177 183 228 150 143 243 188 229 178 153 169 177 179 191 201 207 196 197 218
143 296 298 126 260 260 261 263 263 266 277 278 236 161 276 275 290 289 288 290 294 291 278 271 253 243 248 234 150 237 185 185 204 136 135 192 166 176 163 170 205 198 194
251 270 230 268 289 287 250 246 246 254 260 262 263 260 264 272 268 264 266 272 261 258 264 254 259 236 223 152 180 180 189 215 199 184 150 157 179 201 201 213 220 185 186
243 249 249 259 266 262 279 271 229 232 233 235 270 265 261 266 252 263 260 261 233 210 253 251 239 217 202 240 265 237 196 197 233 216 199 209 190 205 198 204 203 196 220
216 257 233 253 225 229 238 247 235 243 255 249 246 252 239 239 238 252 238 175 172 171 155 248 243 188 171 164 201 222 207 214 189 218 236 199 211 199 223 224 195 172 201
240 260 250 231 231 246 161 231 227 232 237 233 244 238 239 248 236 245 250 246 97 225 232 184 231 228 239 239 227 216 199 207 209 127 132 174 219 164 209 164 213 216 205
139 241 255 123 197 253 118 126 247 250 182 123 218 238 240 227 212 240 238 246 189 239 234 247 112 153 128 150 206 209 129 172 200 199 178 125 195 210 178 232 224 227 219
242 200 142 201 244 130 140 239 133 188 140 252 185 140 231 152 196 213 191 189 227 159 142 137 153 128 141 177 175 225 145 169 170 182 177 124 136 160 193 174 219 191 194
197 143 177 213 200 185 134 125 139 184 131 129 144 135 151 155 133 144 136 147 159 159 163 144 134 209 216 227 136 222 185 148 141 189 236 235 159 236 266 251 239 242 211
181 157 199 154 197 147 152 152 137 155 150 143 158 131 166 205 128 175 131 164 219 152 161 135 132 155 114 168 148 116 216 174 269 269 230 284 277 252 274 265 241 260 278
205 205 205 189 210 197 185 185 156 135 134 131 134 191 135 185 160 148 209 200 226 135 211 218 173 164 180 132 133 212 229 291 116 281 418 572 580 532 316 481 463 447 276
227 202 198 200 199 203 204 206 203 193 207 184 213 211 208 206 174 207 184 205 203 191 198 239 155 146 158 243 185 225 342 477 453 329 463 553 556 572 527 408 342 435 432
238 236 243 244 236 234 231 232 229 232 236 231 228 228 226 216 231 214 213 234 210 160 66 179 149 151 254 203 294 288 487 456 447 428 423 429 462 560 556 501 457 431 423
231 233 232 233 234 233 231 230 231 226 232 226 243 227 225 226 227 218 231 219 219 184 170 152 183 173 209 134 275 314 458 442 425 396 401 398 416 426 547 370 426 413 419
236 229 226 232 226 226 234 233 231 236 223 224 221 214 223 246 236 212 218 223 227 241 155 162 203 176 192 285 267 302 353 416 395 393 396 396 405 417 414 509 350 364 372
227 228 228 219 230 229 234 230 225 231 223 223 224 215 210 211 215 232 180 220 220 170 150 150 204 174 250 282 260 295 342 405 387 370 374 384 383 394 415 409 472 336 358

GFSMW_2pvu_pres_126.txt.gz
Presure
149 166 163 164 158 201 160 123 173 168 148 162 160 138 72 137 138 166 122 137 123 116 113 181 89 130 86 130 142 96 134 123 139 133 86 140 129 160 153 157 153 110 194
177 172 158 172 166 177 157 227 219 146 155 181 178 156 142 180 128 125 162 158 126 137 112 201 143 125 95 134 119 144 193 131 127 117 171 153 125 127 139 131 132 133 125
183 129 141 167 163 166 170 162 168 153 147 162 154 132 122 125 134 127 149 129 134 122 122 147 148 141 134 140 144 128 117 146 121 170 135 127 174 130 172 141 121 135 141
150 157 175 148 155 164 157 160 149 163 155 148 138 132 112 154 115 116 137 127 126 136 133 137 159 133 152 145 152 182 103 171 146 134 129 182 162 158 135 136 117 114 126
137 129 157 128 154 143 153 168 144 150 150 145 127 124 139 126 127 117 139 128 138 137 130 131 111 118 124 148 119 127 142 124 196 128 152 152 134 140 131 173 151 131 137
151 94 149 142 146 150 146 157 135 124 130 142 143 124 139 144 138 141 128 138 138 131 133 133 143 123 125 134 141 192 148 146 169 112 139 138 140 186 157 128 111 160 126
136 147 137 139 142 149 144 134 124 130 124 128 139 143 143 138 145 142 140 134 130 130 123 134 135 137 147 125 119 122 124 154 101 125 131 154 113 146 132 143 153 160 170
163 167 168 177 128 126 122 125 128 132 132 128 140 139 144 142 142 140 138 136 101 108 138 124 123 134 137 136 141 140 140 138 158 155 136 164 140 212 143 170 134 134 196
135 136 137 130 132 134 139 141 136 146 126 134 137 143 144 144 145 141 141 141 130 134 140 161 133 120 123 126 131 195 167 198 208 146 192 153 148 145 116 163 172 175 143
144 135 144 133 155 154 155 163 160 145 144 138 141 141 139 136 131 136 137 254 259 187 144 200 191 204 142 185 213 165 156 191 177 157 174 151 173 171 157 164 140 198 173
259 111 183 142 293 254 231 248 230 141 139 136 140 146 142 136 278 251 300 295 290 286 280 249 252 181 177 266 171 180 167 166 171 146 154 171 176 181 196 230 229 201 231
125 136 263 258 161 274 274 145 283 276 182 290 281 160 304 288 306 302 303 282 279 269 268 267 260 119 138 249 192 251 158 185 186 185 127 198 241 243 256 139 132 177 199
265 269 282 272 274 250 249 257 260 263 265 275 273 274 275 275 222 279 278 257 280 270 275 179 178 259 278 274 176 266 178 250 219 260 248 226 236 235 174 187 228 235 242
228 258 260 253 259 254 262 260 237 245 248 250 253 252 251 251 216 257 257 211 257 261 263 262 218 167 196 218 137 247 141 222 223 198 198 151 230 226 230 236 207 231 226
232 241 237 235 220 249 249 256 262 256 248 238 229 231 245 231 241 245 251 253 252 254 252 248 243 179 167 242 254 237 243 245 218 179 207 176 205 189 208 155 143 166 175
236 255 238 237 239 236 241 250 196 243 244 234 230 243 246 244 241 195 238 241 237 108 246 242 241 237 238 217 177 195 236 238 121 134 161 138 230 187 126 149 178 253 189
234 243 258 259 220 248 242 120 248 237 126 196 158 202 227 192 186 237 239 237 229 227 229 232 243 244 244 209 169 253 146 135 134 124 128 152 145 187 164 218 246 238 198
173 224 216 236 198 178 157 199 142 138 184 245 252 127 208 242 243 181 184 129 128 183 196 151 215 146 159 173 161 213 208 127 147 147 180 188 244 249 206 186 117 133 191
185 178 171 180 192 197 167 205 163 156 211 136 130 143 145 142 134 146 128 122 163 153 157 142 160 147 162 160 184 233 223 133 156 162 204 179 219 160 237 183 246 147 184
210 211 193 187 189 184 182 172 175 162 173 166 145 156 152 158 196 151 124 221 148 174 187 135 131 200 208 218 223 183 205 289 171 173 167 156 245 331 211 190 497 571 284
243 243 243 241 209 209 205 216 217 206 198 218 200 201 217 172 134 164 225 225 223 227 228 229 219 221 222 215 229 180 172 239 150 148 159 260 287 407 375 380 440 463 577
240 240 239 240 242 241 246 238 234 231 222 224 234 215 235 228 235 234 229 231 229 224 194 236 232 235 237 249 199 172 182 172 192 162 248 259 273 454 443 208 431 257 529
227 243 246 243 239 239 240 240 240 241 240 239 236 237 235 229 229 228 227 231 227 229 222 207 202 223 233 234 192 168 152 158 200 221 234 298 312 437 426 405 422 423 447
168 199 205 213 223 241 238 234 230 234 229 232 233 237 238 227 232 228 231 217 222 227 219 208 255 196 181 233 218 152 143 215 269 274 296 300 315 428 418 391 410 408 426
276 260 164 236 234 223 215 191 202 222 215 214 232 231 228 223 224 229 224 215 203 209 191 192 186 206 173 233 172 162 153 261 240 278 287 298 330 418 402 396 400 402 432
272 296 322 361 339 273 247 243 239 231 211 209 215 218 216 214 212 212 210 222 177 223 239 203 241 226 241 225 238 177 235 263 280 277 288 299 331 409 387 399 406 437 437

GFSMW_2pvu_pres_129.txt.gz
Presure
107 82 103 153 136 170 152 157 123 152 110 139 163 130 147 124 132 151 138 159 160 135 91 125 116 106 117 110 144 107 151 127 137 215 214 154 124 136 130 124 174 141 126
145 154 132 141 148 147 173 173 150 167 139 173 137 171 150 143 154 139 153 147 119 187 152 134 128 142 133 133 134 164 154 125 113 122 199 172 182 137 128 130 153 122 153
462 221 256 141 150 152 152 160 161 155 167 159 186 161 166 134 161 166 156 165 147 145 124 153 140 135 144 151 126 144 147 135 135 170 162 153 183 201 119 149 122 131 170
381 396 149 154 323 147 152 167 167 158 166 162 174 190 194 128 175 139 152 135 119 118 134 139 113 128 119 124 136 135 142 129 123 174 136 121 113 164 156 157 126 174 123
383 393 383 411 127 154 168 179 173 172 169 173 171 171 174 146 158 164 129 128 130 123 125 126 110 114 119 129 138 129 154 149 149 130 130 138 210 148 144 142 101 203 133
402 408 264 407 144 268 149 133 179 185 176 151 159 162 167 140 141 124 129 122 137 118 130 123 133 130 133 134 129 134 135 130 120 127 132 143 124 123 126 142 129 129 123
222 141 83 138 172 137 142 152 134 142 147 147 164 143 131 126 124 136 137 115 121 121 114 108 117 125 128 127 131 133 132 135 140 120 115 135 139 142 170 141 136 159 141
165 152 97 143 143 142 149 154 147 151 140 149 149 126 126 133 131 130 131 128 131 139 141 142 136 133 133 128 128 126 120 126 140 151 131 142 139 143 140 160 197 188 150
160 157 158 169 168 159 144 136 139 133 128 127 121 128 121 130 126 118 137 138 139 144 135 133 133 131 134 135 133 132 132 132 141 127 134 141 177 123 154 175 144 150 139
275 282 131 125 132 135 151 153 146 126 143 133 131 120 126 131 136 142 142 133 127 136 136 133 134 134 134 137 140 184 142 142 143 176 153 207 181 214 222 211 173 152 161
136 141 143 144 115 119 138 143 143 136 133 127 141 139 140 143 151 156 132 137 149 149 136 141 138 139 142 145 186 274 292 259 286 280 239 198 230 212 239 257 216 153 156
241 248 251 255 139 198 126 132 156 152 152 151 132 130 150 130 133 150 279 288 281 283 282 275 286 277 283 290 274 266 263 259 267 271 256 147 248 252 234 236 232 254 271
213 187 131 158 204 150 154 149 268 276 281 280 160 285 189 189 164 172 272 295 293 291 291 288 271 267 273 168 265 258 251 250 254 246 227 260 238 217 238 159 241 159 207
245 249 254 191 140 186 253 249 251 250 255 263 268 269 269 270 273 275 274 275 267 268 270 273 272 271 269 263 266 262 256 255 256 261 256 263 265 136 255 215 246 155 243
250 161 237 203 239 148 237 154 253 251 237 233 241 259 242 241 246 263 254 248 252 251 248 245 245 190 248 177 184 249 250 250 249 249 251 220 249 248 249 248 179 253 226
256 253 247 245 246 244 141 247 226 240 246 249 250 193 245 251 246 243 249 246 235 238 248 244 239 240 242 241 241 244 238 235 228 230 228 229 229 228 208 227 113 126 134
184 185 242 180 145 171 147 246 242 245 242 235 213 155 222 197 230 228 227 199 212 182 232 227 228 195 151 176 223 203 232 243 252 254 251 137 199 159 232 145 133 137 187
201 198 209 173 177 203 207 206 207 200 253 142 133 227 133 135 178 160 138 126 206 194 183 141 243 157 135 146 140 153 151 201 150 134 157 164 152 195 228 207 132 204 240
246 245 213 198 203 201 195 194 183 184 211 175 159 185 186 164 162 227 156 142 144 147 154 152 138 133 140 148 147 165 220 232 154 219 246 238 219 229 216 221 183 179 222
239 239 243 246 248 245 240 243 243 240 232 207 209 207 204 196 155 150 164 157 152 155 156 141 137 203 155 229 232 242 234 233 219 236 189 222 233 226 227 186 246 191 292
176 209 222 228 238 243 241 243 246 243 239 240 241 239 239 241 241 242 241 233 234 237 237 240 239 239 242 237 232 232 230 226 220 215 220 229 236 228 154 192 161 160 238
211 255 251 247 242 229 224 215 220 232 239 234 241 229 233 242 239 238 238 238 237 238 237 236 237 241 229 230 220 215 246 215 209 203 204 209 240 235 233 199 158 167 302
276 290 282 163 163 162 279 263 261 248 246 239 237 233 215 217 219 218 221 240 229 232 241 237 229 230 225 209 225 212 211 221 210 242 195 179 200 137 145 169 157 290 298
255 239 249 247 251 270 245 243 266 319 373 296 266 253 249 244 237 236 234 231 215 213 214 213 214 213 216 224 237 206 205 209 193 184 211 235 255 173 168 164 278 292 299
214 225 219 239 219 224 250 243 256 272 289 285 297 311 295 371 306 262 256 253 252 236 221 222 224 222 219 217 212 218 182 221 203 175 205 198 263 271 235 270 280 288 312
228 218 226 161 166 219 247 221 241 238 234 255 282 280 290 303 305 329 347 336 305 278 270 262 251 243 240 226 242 246 246 249 196 197 238 274 271 263 272 275 289 300 308